Regional Weather Roundup
Issued by NWS Grand Forks, ND

Home | Current Version | Previous Version | Text Only | Print | Product List | Glossary Off
Versions: 1 2 3 4 5 6 7 8 9 10 11 12 13 14 15 16 17 18 19 20 21 22 23 24 25 26 27 28 29 30 31 32 33 34 35 36 37 38 39 40 41 42 43 44 45 46 47 48 49 50

000
ASUS43 KFGF 281910
RWRFGF
PRAIRIE TO PINES  WEATHER ROUNDUP
NATIONAL WEATHER SERVICE EASTERN NORTH DAKOTA/GRAND FORKS ND
100 PM CST WED JAN 28 2015

 **SATELLITE DATA USED TO AUGMENT SKY COVER AT AUTOMATED STATIONS**
 *****  WEATHER ACROSS EASTERN NORTH DAKOTA  *****

CITY           SKY/WX    TMP DP  RH WIND       PRES   REMARKS
GRAND FORKS    CLOUDY    34  32  92 SW5       29.76F FOG
GRAND FRKS AFB CLOUDY    33  32  97 W3        29.76F FOG
GRAND FRKS NWS   N/A     32 N/A N/A SW3         N/A
DEVILS LAKE    CLOUDY    32  30  93 N14       29.77S WCI  22
FARGO          CLOUDY    36  31  82 S16G24    29.76F HAZE
WAHPETON ARPT  CLOUDY    32  30  93 S9        29.76F WCI  24
$$

 ***** WEATHER ACROSS CENTRAL AND WESTERN NORTH DAKOTA  *****

CITY           SKY/WX    TMP DP  RH WIND       PRES   REMARKS
BISMARCK       CLOUDY    38  32  79 NW12      29.81R
MINOT          CLOUDY    28  26  92 NW20G25   29.88R FOG     WCI  15
JAMESTOWN      CLOUDY    32  31  96 N6        29.73S FOG
MINOT AFB      FRZ DRZL  28  28 100 N12       29.89R FOG     WCI  18
GARRISON         N/A     31  30  96 N15       29.86R WCI  20
WILLISTON      CLOUDY    32  29  88 NW17G23   30.00R WCI  21
DICKINSON      CLOUDY    41  32  70 NW29G39   29.87R
HETTINGER      CLOUDY    46  31  55 NW31G38   29.86R
$$

 *****  OTHER AIRPORT OBSERVATIONS IN OUR AREA  *****

CITY           SKY/WX    TMP DP  RH WIND       PRES   REMARKS
WALHALLA       FOG       32  32 100 N10       29.80S VSB 1/2 WCI  24
GRAFTON AIRPOR NOT AVBL
VALLEY CITY AR CLOUDY    32  32 100 W3        29.74S FOG
CANDO          CLOUDY    32  32 100 N18       29.81R FOG     WCI  20
CAVALIER APRT  FOG       32  32 100 N5        29.78F VSB<1/4
GWINNER        CLOUDY    36  36 100 SE6       29.74S
SHEYENNE NWR     N/A     35  32  88 SE8       29.95S
ROLLA          FOG       27  27 100 N18G32    29.83R VSB 1   WCI  13
 ***** THE ABOVE OBSERVATIONS ARE NON NWS ARE NOT QUALITY
       CONTROLLED AND MAY MIS-REPORT RAIN FOR SNOW...
$$

  *****  WEATHER ACROSS NORTHERN MINNESOTA  *****

CITY           SKY/WX    TMP DP  RH WIND       PRES   REMARKS
FLAG ISLAND    FOG       28  28 100 SE3       29.80F VSB 1
WARROAD        FOG       32  28  86 CALM      29.80F VSB 3/4
ROSEAU         FOG       34  28  80 CALM      29.79F VSB 1
HALLOCK        FOG       34  32  93 CALM      29.78F VSB 1/4
THF RVR FALLS  CLOUDY    34  30  86 S3        29.77F
BAUDETTE       FOG       31  30  96 S5        29.79F VSB 1
WASKISH        CLOUDY    30  28  93 SE5       29.79F FOG
CROOKSTON      CLOUDY    34  32  93 SW8       29.78F FOG
STEPHEN NDAWN    N/A     34  34 100 S6          N/A
GREENBUSH NDAW   N/A     34  34 100 E2          N/A
$$
  *****  WEATHER ACROSS CENTRAL AND WEST MINNESOTA  *****

CITY           SKY/WX    TMP DP  RH WIND       PRES   REMARKS
FOSSTON        CLOUDY    34  28  80 S12       29.76S FOG
BEMIDJI        CLOUDY    31  30  95 S13G20    29.76F FOG     WCI  21
PARK RAPIDS    CLOUDY    32  29  88 S12       29.77F FOG     WCI  23
ELBOW LAKE     CLOUDY    32  31  96 SE13      29.77F FOG     WCI  22
WADENA         CLOUDY    30  28  93 S14G20    29.78  FOG     WCI  20
DETROIT LAKES  CLOUDY    34  32  93 S10       29.77F FOG
MOORHEAD       CLOUDY    36  36 100 S17       29.77F FOG
FERGUS FALLS   CLOUDY    34  30  86 S18       29.79F FOG     WCI  23
MORRIS MN      CLOUDY    34  30  86 SE14      29.77S FOG     WCI  24
STAPLES        CLOUDY    28  28 100 S8        29.79F FOG     WCI  20
$$
  *****  WEATHER ELSEWHERE ACROSS MINNESOTA  *****

CITY           SKY/WX    TMP DP  RH WIND       PRES   REMARKS
DULUTH         CLOUDY    26  22  84 SE9       29.85F FOG     WCI  17
INTRNTL FALLS  CLOUDY    28  24  85 S8        29.82F WCI  20
ELY            CLOUDY    28  25  86 S10       29.83F WCI  19
CLOQUET        CLOUDY    27  21  80 SE5       29.85F WCI  21
WHEATON        CLOUDY    32  30  93 SE12      29.78F FOG     WCI  23
BRAINERD       CLOUDY    29  27  92 S10       29.82F FOG     WCI  20
HIBBING        CLOUDY    26  21  81 S7        29.83F WCI  18
ALEXANDRIA     CLOUDY    31  30  96 S14       29.78F FOG     WCI  21
SAINT CLOUD    CLOUDY    29  26  89 SE15      29.82F FOG     WCI  18
MINNEAPOLIS    CLOUDY    29  24  82 SE15      29.87F HAZE    WCI  18
$$

  *****  WEATHER ACROSS SOUTH DAKOTA  *****

CITY           SKY/WX    TMP DP  RH WIND       PRES   REMARKS
SIOUX FALLS    PTSUNNY   41  34  76 SE13      29.69F
BROOKINGS      NOT AVBL
WATERTOWN      CLOUDY    35  32  88 SE5       29.70F
HURON          MOSUNNY   41  34  76 N8        29.70F
SISSETON         N/A     34  32  92 S8        29.74F
ABERDEEN       PTSUNNY   40  33  76 CALM      29.71F
MITCHELL       MOSUNNY   45  35  68 NW10      29.69F
PIERRE         PTSUNNY   53  34  48 NW23      29.74S
MOBRIDGE       CLOUDY    48  35  60 NW17      29.73F
RAPID CITY     CLOUDY    55  25  31 N26G35    29.90R
$$

  *****  SOME WEATHER IN NEARBY STATES *****

CITY           SKY/WX    TMP DP  RH WIND       PRES   REMARKS
GLASGOW MT     CLOUDY    33  29  85 NW16      30.13R WCI  23
GREAT FALLS MT SUNNY     45  31  58 NW7       30.23R
CHEYENNE WY    CLOUDY    49  27  42 NW24G32   30.07F
SCOTTSBLUFF NE   N/A    N/A N/A N/A MISG      29.99R
OMAHA NE       PTSUNNY   49  33  54 SE10      29.73F
DES MOINES IA  CLOUDY    46  34  62 SE14      29.81F
DAVENPORT IA   CLOUDY    34  24  67 SE22      30.01F WCI  22
CHICAGO IL     CLOUDY    32  18  56 S15       30.15F WCI  22
EAU CLAIRE WI  CLOUDY    29  23  78 SE12      29.96F HAZE    WCI  19
LA CROSSE WI   CLOUDY    32  26  78 SE9       29.98F HAZE    WCI  24
$$

  *****  SOME NATIONAL WEATHER *****

CITY           SKY/WX    TMP DP  RH WIND       PRES   REMARKS
LA GUARDIA NY  MOSUNNY   31  10  41 N13       30.05S WCI  21
RALEIGH NC     SUNNY     43  12  28 CALM      30.21F
ATLANTA GA     MOSUNNY   51  22  31 VRB3      30.23F
NEW ORLEANS LA SUNNY     65  39  38 SE6       30.26F
OKLAHOMA CITY  PTSUNNY   76  41  28 S17       29.92F
ALBUQUERQUE NM MOSUNNY   58  33  39 NW8       30.25F
SALT LAKE CITY PTSUNNY   48  38  68 N8        30.31S
LOS ANGELES CA PTSUNNY   68  48  48 NE6       30.13F
BOISE ID       FOG       36  36 100 CALM      30.37S VSB 1/4
SEATTLE WA     CLOUDY    48  44  86 CALM      30.40R
$$

*** WEATHER ACROSS MANITOBA...SASKATCHEWAN AND ONTARIO ***
                ***ONTARIO***

CITY           SKY/WX    TMP DP  RH WIND       PRES   REMARKS
GERALDTON      CLOUDY    28  25  86 S9        29.98F WCI  20
THUNDER BAY    FLURRIES  28  27  93 E9        29.96F WCI  20
SIOUX LOOKOUT  LGT SNOW  28  25  86 SE3       29.83F
TORONTO        MOSUNNY   28   3  34 VRB2      30.27F
BIG TROUT LK   PTSUNNY    0  -8  71 N5        30.15F WCI -10
PICKLE LAKE    LGT SNOW  19  16  86 NE15G21   29.95F VSB 3/4 WCI   5
DRYDEN         CLOUDY    27  25  93 S7        29.82F WCI  19
KENORA         FRZ DRZL  27  27 100 SE5       29.81F VSB 1   WCI  21
$$
                *** MANITOBA***

CITY           SKY/WX    TMP DP  RH WIND       PRES   REMARKS
BRANDON        CLOUDY    25  25 100 N12       29.91R WCI  14
DAUPHIN        LGT SNOW  14  10  85 N10       30.03R WCI   1
ISLAND LAKE    PTSUNNY    1  -4  78 NE7       30.11F WCI -11
PILOT MOUND    NOT AVBL
THE PAS        LGT SNOW   0  -6  78 NE6       30.15F VSB 1   WCI -12
THOMPSON       FLURRIES  -8 -17  65 N6        30.24F WCI -21
WINNIPEG       FRZ DRZL  30  28  93 NE9       29.84S FOG     WCI  22
LYNN LAKE      LGT SNOW -11 -17  77 NE7       30.21F VSB 3/4 WCI -26
CHURCHILL      CRYSTALS -18 -26  69 W13       30.29S WCI -41
$$
                ***SASKATCHEWAN***

CITY           SKY/WX    TMP DP  RH WIND       PRES   REMARKS
ESTEVAN        FRZ DRZL  27  25  93 NW16      29.98  FOG     WCI  14
KINDERSLEY     CLOUDY    32  30  93 NW12      30.16R WCI  23
LLOYDMINSTER   MOSUNNY   16   9  73 NW17G25   30.19R WCI   0
PRINCE ALBERT  FLURRIES  12   9  85 N2        30.12R
REGINA         NOT AVBL
YORKTON        LGT SNOW  14  10  85 N9        30.03R WCI   2
N. BATTLEFORD  CLOUDY    27  21  80 NW21G29   30.16R WCI  13
LA RONGE       FLURRIES   1  -4  78 NW8       30.17R WCI -12
SASKATOON      CLOUDY    27  23  86 NW26G36   30.11R WCI  11
SWIFT CURRENT  FOG       30  30 100 W17G23    30.13R VSB 1   WCI  18
$$
NOTE: THESE ARE AUTOMATED STATIONS WITH LIMITED QUALITY CONTROL
      "FAIR" INDICATES FEW OR NO CLOUDS BELOW 12,000 FEET WITH NO
      SIGNIFICANT WEATHER AND/OR OBSTRUCTIONS TO VISIBILITY.
      SKY/WX - SKY CONDITION AND SIGNIFICANT WEATHER.
      TMP - AIR TEMPERATURE.    DP   - DEWPOINT TEMPERATURE.
      RH  - RELATIVE HUMIDITY.  PRES - PRESSURE.
      HX  - HEAT INDEX.         WCI  - WIND CHILL INDEX.
$


USA.gov is the U.S. government's official web portal to all federal, state and local government web resources and services.